Regional Weather Roundup
Issued by NWS

Home | Current Version | Previous Version | Graphics & Text | Print | Product List | Glossary On
Versions: 1 2 3 4 5 6 7 8 9 10 11 12 13 14 15 16 17 18 19 20 21 22 23 24 25 26 27 28 29 30 31 32 33 34 35 36 37 38 39 40 41 42 43 44 45 46 47 48 49 50
000
ASUS43 KDTX 010710
RWRMI
MICHIGAN HOURLY REGIONAL WEATHER ROUNDUP
NATIONAL WEATHER SERVICE DETROIT/PONTIAC MI
300 AM EDT FRI AUG 01 2014

NOTE: "FAIR" INDICATES FEW OR NO CLOUDS BELOW 12,000 FEET WITH NO
SIGNIFICANT WEATHER AND/OR OBSTRUCTION TO VISIBILITY.

MIZ047>049-052>055-059>063-066>070-074>076-081>083-010800-
SOUTHEAST LOWER MICHIGAN

CITY           SKY/WX    TMP DP  RH WIND       PRES   REMARKS
ADRIAN         CLEAR     62  59  90 W3        30.07S
ALMA           MOCLDY    61  59  91 CALM      30.03S
ANN ARBOR      FOG       55  52  89 CALM      30.06S VSB 1/4
BAD AXE        CLEAR     58  58 100 S3        30.04S
CARO           PTCLDY    60  60 100 CALM      30.04R FOG
DETROIT CITY   CLEAR     68  59  73 W5        30.05S
DETROIT        PTCLDY    64  59  83 CALM      30.05F
FLINT          MOCLDY    64  58  80 SW5       30.04S
GROSSE ILE     CLEAR     66  61  82 CALM      30.04S
HILLSDALE      PTCLDY    62  61  97 SW3       30.07S
HOWELL         PTCLDY    62  58  87 S3        30.05S

CITY           SKY/WX    TMP DP  RH WIND       PRES   REMARKS
JACKSON        CLEAR     62  57  83 SW5       30.06S
LAMBERTVILLE   CLEAR     61  57  88 CALM      30.07S FOG
LANSING        PTCLDY    64  58  80 CALM      30.04F
LAPEER         FAIR      54  53  96 CALM      30.05S FOG
MASON          CLEAR     60  57  89 CALM      30.05F
MONROE         CLEAR     63  59  88 CALM      30.04S
MT. CLEMENS    CLEAR     59  57  92 N1        30.04R
PONTIAC        CLEAR     62  57  83 CALM      30.05S
PORT HOPE        N/A     62  58  86 SW7       30.00S
PORT HURON     FOG       54  54 100 CALM      30.05R VSB 1/4
TRI CITIES     MOCLDY    65  60  84 SW5       30.03S
TROY           CLEAR     64  59  83 W3        30.06S
SAGINAW HB     LGT RAIN  63  63 100 CALM      30.03R
$$
MIZ043>046-050>051-056>058-064>065-071>073-077>080-010800-
SOUTHWEST LOWER MICHIGAN

CITY           SKY/WX    TMP DP  RH WIND       PRES   REMARKS
BATTLE CREEK   CLEAR     64  58  80 SW8       30.06S
BENTON HARBOR  CLEAR     60  59  96 CALM      30.04F FOG
BIG RAPIDS     PTCLDY    59  59 100 CALM      30.01S
COLDWATER      CLOUDY    66  62  87 SW5       30.07R
FREMONT        FAIR      60  60 100 CALM      30.01S FOG
HOLLAND        CLEAR     66  59  78 VRB3      30.04S
GRAND RAPIDS   CLEAR     65  60  84 SW6       30.03S
IONIA          FAIR      64  58  83 W6        30.03R
KALAMAZOO      CLEAR     63  58  83 SW7       30.05F
LUDINGTON      CLEAR     57  55  93 CALM      30.01S
MARSHALL       CLEAR     61  58  88 CALM      30.05F
MOUNT PLEASANT PTCLDY    64  60  87 CALM      30.01F
MUSKEGON       CLEAR     62  57  83 S3        30.02S
SOUTH HAVEN    CLEAR     62  62 100 CALM      30.04S FOG
$$
MIZ016>042-010800-
NORTHERN LOWER MICHIGAN

CITY           SKY/WX    TMP DP  RH WIND       PRES   REMARKS
ALPENA         CLEAR     56  54  93 CALM      30.00F
BEAVER ISLAND  FOG       52  52 100 CALM      30.00R VSB 1/4
BELLAIRE       MOCLDY    55  53  94 CALM      30.00S
CADILLAC       CLEAR     51  51 100 CALM      30.02F
CHARLEVOIX     PTCLDY    58  58 100 CALM      30.02F FOG
FRANKFORT      CLEAR     59  55  87 CALM      30.00F
GAYLORD        MOCLDY    57  52  83 CALM      30.02S
GRAYLING       PTCLDY    54  54 100 CALM      30.02S
HARBOR SPRINGS CLEAR     58  56  94 NW3       30.00S
HOUGHTON LAKE  CLEAR     58  55  90 CALM      30.02F
MANISTEE       PTCLDY    55  52  88 CALM      30.01S
OSCODA         CLEAR     54  51  91 CALM      30.00S
PELLSTON       CLEAR     52  51  97 CALM      30.00S
ROGERS CITY    MOCLDY    58  57  99 S5        30.01S
TRAVERSE CITY  PTCLDY    63  58  83 NE3       29.99S
$$
MIZ007>008-015-010800-
EASTERN UPPER MICHIGAN

CITY           SKY/WX    TMP DP  RH WIND       PRES   REMARKS
KINROSS        PTCLDY    52  52 100 CALM      30.00R
MACKINAC ISLAN PTCLDY    58  58 100 SW3       29.99S FOG
NEWBERRY       CLEAR     47  46  97 CALM      29.99F
S. S. MARIE    CLOUDY    53  50  89 S3        29.99S
MUNISING         N/A     51  47  86 S5        29.99R
$$
MIZ004>006-011>014-085-010800-
CENTRAL UPPER MICHIGAN

CITY           SKY/WX    TMP DP  RH WIND       PRES   REMARKS
MANISTIQUE     CLEAR     47  46  97 CALM      29.99R
ESCANABA       CLEAR     52  48  87 CALM      29.99S
MENOMINEE      PTCLDY    57  55  94 CALM      29.98S
SAWYER-GWINN   CLEAR     50  48  93 CALM      30.00S
$$
MIZ001>003-009>011-084-010800-
WESTERN UPPER MICHIGAN

CITY           SKY/WX    TMP DP  RH WIND       PRES   REMARKS
IRON MOUNTAIN  CLOUDY    54  52  93 CALM      30.00S
HOUGHTON       CLEAR     52  48  86 CALM      29.99S
COPPER HARBOR    N/A     56  48  74 W7        29.98R
$$

ABBREVIATIONS USED IN REMARKS
   TC - TEMPERATURE IN CELSIUS
  WCI - WIND CHILL INDEX
   HX - HEAT INDEX
  VSB - VISIBILITY




USA.gov is the U.S. government's official web portal to all federal, state and local government web resources and services.